Weather History for Newberry, SC

Change the Weather History Date:

Sunday, October 20, 2013

  Actual Average (KFDW) Record (KFDW)
Temperature  
Mean Temperature 58 °F -  
Max Temperature 69 °F 71 °F 75 °F (2012)
Min Temperature 46 °F 44 °F 48 °F (2011)
Degree Days  
Heating Degree Days 8    
Growing Degree Days 8 (Base 50)    
Moisture  
Dew Point 50 °F    
Average Humidity 78    
Maximum Humidity 100    
Minimum Humidity 40    
Precipitation  
Precipitation 0.00 in - - ()
Sea Level Pressure  
Sea Level Pressure 30.06 in    
Wind  
Wind Speed 3 mph (NE)    
Max Wind Speed 8 mph    
Max Gust Speed -    
Visibility 9 miles    
Events      
Averages and records for this station are not official NWS values.
T = Trace of Precipitation, MM = Missing Value Source: NWS Daily Summary

Daily Weather History Graph

Daily Weather History Graph

Search for Another Location

Airport:

Trip Planner

Search our weather history database for the weather conditions in past years. The results will help you decide how hot, cold, wet, or windy it might be!

Date:

Astronomy

Oct. 20, 2013 Rise Set
Actual Time 7:36 AM EDT 6:45 PM EDT
Civil Twilight 7:10 AM EDT 7:11 PM EDT
Nautical Twilight 6:41 AM EDT 7:40 PM EDT
Astronomical Twilight 6:12 AM EDT 8:09 PM EDT
Moon 7:58 PM EDT (10/20) 9:08 AM EDT (10/20)
Length of Visible Light 12h 00m
Length of Day
11h 09m
Full, 97% of the Moon is Illuminated
Oct 20
Full
Oct 26
Last Quarter
Nov 3
New
Nov 10
First Quarter
Nov 17
Full

Hourly Weather History & Observations

Time (EDT) Temp. Windchill Dew Point Humidity Pressure Visibility Wind Dir Wind Speed Gust Speed Precip Events Conditions
12:15 AM 57.2 °F - 55.4 °F 94% 29.97 in 10.0 mi West 3.5 mph - N/A   Clear
12:35 AM 57.2 °F - 55.4 °F 94% 29.97 in 10.0 mi West 4.6 mph - N/A   Clear
12:55 AM 57.2 °F - 55.4 °F 94% 29.98 in 10.0 mi WNW 3.5 mph - N/A   Clear
1:15 AM 55.4 °F - 55.4 °F 100% 29.98 in 10.0 mi Calm Calm - N/A   Clear
1:35 AM 55.4 °F - 55.4 °F 100% 29.98 in 10.0 mi Calm Calm - N/A   Clear
1:55 AM 55.4 °F - 55.4 °F 100% 29.99 in 10.0 mi Calm Calm - N/A   Clear
2:15 AM 53.6 °F - 53.6 °F 100% 29.99 in 7.0 mi Calm Calm - N/A   Clear
2:35 AM 53.6 °F - 53.6 °F 100% 29.99 in 5.0 mi Calm Calm - N/A   Clear
2:55 AM 51.8 °F - 51.8 °F 100% 29.99 in 7.0 mi WNW 3.5 mph - N/A   Clear
3:15 AM 51.8 °F - 51.8 °F 100% 30.00 in 7.0 mi Calm Calm - N/A   Clear
3:35 AM 51.8 °F - 51.8 °F 100% 29.99 in 5.0 mi Calm Calm - N/A   Clear
3:55 AM 50.0 °F - 50.0 °F 100% 29.99 in 7.0 mi Calm Calm - N/A   Clear
4:15 AM 50.0 °F - 50.0 °F 100% 29.99 in 3.0 mi Calm Calm - N/A   Clear
4:35 AM 50.0 °F - 50.0 °F 100% 30.00 in 7.0 mi Calm Calm - N/A   Clear
4:55 AM 50.0 °F - 50.0 °F 100% 30.00 in 7.0 mi NNW 3.5 mph - N/A   Clear
5:15 AM 46.4 °F 45.2 °F 46.4 °F 100% 30.00 in 7.0 mi NNW 3.5 mph - N/A   Clear
5:35 AM 48.2 °F - 48.2 °F 100% 30.01 in 7.0 mi North 4.6 mph - N/A   Clear
5:55 AM 48.2 °F - 48.2 °F 100% 30.01 in 10.0 mi North 4.6 mph - N/A   Clear
6:15 AM 50.0 °F - 50.0 °F 100% 30.02 in 10.0 mi North 3.5 mph - N/A   Clear
6:35 AM 50.0 °F - 50.0 °F 100% 30.02 in 10.0 mi North 3.5 mph - N/A   Clear
6:55 AM 50.0 °F - 50.0 °F 100% 30.03 in 10.0 mi North 5.8 mph - N/A   Clear
7:15 AM 50.0 °F - 50.0 °F 100% 30.04 in 10.0 mi North 5.8 mph - N/A   Clear
7:35 AM 48.2 °F - 48.2 °F 100% 30.05 in 10.0 mi NNE 4.6 mph - N/A   Clear
7:55 AM 48.2 °F - 48.2 °F 100% 30.06 in 10.0 mi NNE 3.5 mph - N/A   Clear
8:15 AM 48.2 °F - 48.2 °F 100% 30.06 in 10.0 mi NE 3.5 mph - N/A   Clear
8:35 AM 50.0 °F - 50.0 °F 100% 30.07 in 10.0 mi NNE 3.5 mph - N/A   Clear
8:55 AM 53.6 °F - 51.8 °F 94% 30.08 in 10.0 mi NE 8.1 mph - N/A   Clear
9:15 AM 53.6 °F - 50.0 °F 88% 30.09 in 10.0 mi NE 8.1 mph - N/A   Clear
9:35 AM 55.4 °F - 51.8 °F 88% 30.09 in 10.0 mi NE 6.9 mph - N/A   Clear
9:55 AM 55.4 °F - 50.0 °F 82% 30.10 in 10.0 mi NE 6.9 mph - N/A   Clear
10:15 AM 59.0 °F - 48.2 °F 67% 30.11 in 10.0 mi ENE 8.1 mph - N/A   Clear
10:35 AM 59.0 °F - 48.2 °F 67% 30.11 in 10.0 mi East 6.9 mph - N/A   Clear
10:55 AM 60.8 °F - 46.4 °F 59% 30.11 in 10.0 mi ENE 6.9 mph - N/A   Clear
11:15 AM 60.8 °F - 46.4 °F 59% 30.11 in 10.0 mi ENE 6.9 mph - N/A   Clear
11:35 AM 62.6 °F - 46.4 °F 55% 30.11 in 10.0 mi ENE 5.8 mph - N/A   Clear
11:55 AM 62.6 °F - 48.2 °F 59% 30.11 in 10.0 mi NNE 5.8 mph - N/A   Clear
12:15 PM 64.4 °F - 46.4 °F 52% 30.11 in 10.0 mi East 8.1 mph - N/A   Clear
12:35 PM 64.4 °F - 46.4 °F 52% 30.10 in 10.0 mi ENE 6.9 mph - N/A   Clear
12:55 PM 64.4 °F - 46.4 °F 52% 30.10 in 10.0 mi SE 3.5 mph - N/A   Clear
1:15 PM 64.4 °F - 46.4 °F 52% 30.09 in 10.0 mi NE 5.8 mph - N/A   Clear
1:35 PM 66.2 °F - 46.4 °F 49% 30.08 in 10.0 mi Calm Calm - N/A   Clear
1:55 PM 68.0 °F - 46.4 °F 46% 30.07 in 10.0 mi NE 3.5 mph - N/A   Clear
2:15 PM 68.0 °F - 46.4 °F 46% 30.07 in 10.0 mi ENE 3.5 mph - N/A   Clear
2:35 PM 68.0 °F - 46.4 °F 46% 30.06 in 10.0 mi East 4.6 mph - N/A   Clear
2:55 PM 69.8 °F - 46.4 °F 43% 30.06 in 10.0 mi ESE 4.6 mph - N/A   Clear
3:15 PM 69.8 °F - 46.4 °F 43% 30.06 in 10.0 mi East 5.8 mph - N/A   Clear
3:35 PM 69.8 °F - 44.6 °F 40% 30.05 in 10.0 mi NNE 3.5 mph - N/A   Clear
3:55 PM 69.8 °F - 46.4 °F 43% 30.05 in 10.0 mi NE 3.5 mph - N/A   Clear
4:15 PM 69.8 °F - 44.6 °F 40% 30.05 in 10.0 mi ENE 4.6 mph - N/A   Clear
4:35 PM 69.8 °F - 46.4 °F 43% 30.05 in 10.0 mi Calm Calm - N/A   Clear
4:55 PM 69.8 °F - 46.4 °F 43% 30.05 in 10.0 mi Calm Calm - N/A   Clear
5:15 PM 69.8 °F - 46.4 °F 43% 30.05 in 10.0 mi South 3.5 mph - N/A   Clear
5:35 PM 69.8 °F - 46.4 °F 43% 30.06 in 10.0 mi Calm Calm - N/A   Clear
5:55 PM 68.0 °F - 48.2 °F 49% 30.06 in 10.0 mi South 4.6 mph - N/A   Clear
6:15 PM 66.2 °F - 50.0 °F 56% 30.06 in 10.0 mi Calm Calm - N/A   Clear
6:35 PM 62.6 °F - 51.8 °F 68% 30.06 in 10.0 mi SE 3.5 mph - N/A   Clear
6:55 PM 60.8 °F - 50.0 °F 68% 30.07 in 10.0 mi Calm Calm - N/A   Clear
7:15 PM 59.0 °F - 51.8 °F 77% 30.07 in 10.0 mi Calm Calm - N/A   Clear
7:35 PM 57.2 °F - 51.8 °F 82% 30.08 in 10.0 mi Calm Calm - N/A   Clear
7:55 PM 55.4 °F - 50.0 °F 82% 30.08 in 10.0 mi ENE 3.5 mph - N/A   Clear
8:15 PM 55.4 °F - 50.0 °F 82% 30.08 in 10.0 mi East 3.5 mph - N/A   Clear
8:35 PM 55.4 °F - 51.8 °F 88% 30.09 in 10.0 mi Calm Calm - N/A   Clear
8:55 PM 53.6 °F - 51.8 °F 94% 30.09 in 10.0 mi ENE 3.5 mph - N/A   Clear
9:15 PM 53.6 °F - 51.8 °F 94% 30.10 in 10.0 mi East 4.6 mph - N/A   Clear
9:35 PM 53.6 °F - 50.0 °F 88% 30.10 in 10.0 mi ESE 3.5 mph - N/A   Clear
9:55 PM 55.4 °F - 50.0 °F 82% 30.10 in 10.0 mi East 4.6 mph - N/A   Clear
10:15 PM 55.4 °F - 51.8 °F 88% 30.11 in 10.0 mi ESE 3.5 mph - N/A   Clear
10:35 PM 53.6 °F - 51.8 °F 94% 30.11 in 10.0 mi ESE 3.5 mph - N/A   Clear
10:55 PM 53.6 °F - 51.8 °F 94% 30.11 in 10.0 mi Calm Calm - N/A   Clear
11:15 PM 53.6 °F - 51.8 °F 94% 30.11 in 10.0 mi Calm Calm - N/A   Clear
11:35 PM 51.8 °F - 50.0 °F 94% 30.12 in 10.0 mi Calm Calm - N/A   Clear
11:55 PM 50.0 °F - 50.0 °F 100% 30.12 in 10.0 mi ENE 3.5 mph - N/A   Clear